Flag for U.S.A. Weather past 2 weeks in Tuba City, Arizona, U.S.A.

Now
45 °F

Clear.


Feels Like: 43 °F
Forecast: 54 / 86 °F
Wind: 5 mph from Northeast

Location: Grand Canyon National Park Airport

Current Time: Jun 2, 2015 at 1:57:32 AM

Latest Report: Jun 2, 2015 at 12:54 AM


Visibility: 10 mi

Pressure: 29.93 "Hg

Humidity: 48%

Dew point: 26 °F

Location of Tuba CityLocation

Historic Weather in Tuba City — Graph

°F

Tuba City temperature yesterday

Maximum temperature yesterday: 81 °F (at 3:54 PM)
Minimum temperature yesterday: 39 °F (at 5:54 AM)
Average temperature yesterday: 63 °F

Past Weeks' High & Low Weather Summary

 TemperatureHumidityPressure
High82 °F (May 31, 1:54 PM)100% (May 23, 4:54 AM)30.11 "Hg (May 23, 4:54 AM)
Low28 °F (May 19, 5:54 AM)9% (Jun 1, 3:54 PM)29.79 "Hg (May 21, 4:54 PM)
Average53 °F57%29.95 "Hg
* Reported May 18 12:54 AM — Jun 2 12:54 AM, Tuba City, Weather by CustomWeather, © 2015

Note: Actual official high and low records may vary slightly from our data, if they occured in-between our weather recording intervals... More about our weather records

Advertising

Tuba City weather history for previous 24 hours

 ConditionsComfort  
Time TempWeatherWind HumidityBarometerVisibility
12:54 AM
Tue, Jun 2
45 °FClear.5 mph48%29.93 "Hg10 mi
11:54 PM
Mon, Jun 1
47 °FClear.No wind42%29.93 "Hg10 mi
10:54 PM51 °FClear.No wind36%29.92 "Hg10 mi
8:54 PM68 °FClear.13 mph16%29.84 "Hg10 mi
7:54 PM73 °FSunny.16 mph12%29.85 "Hg10 mi
6:54 PM76 °FSunny.21 mph9%29.89 "Hg10 mi
5:54 PM78 °FSunny.20 mph10%29.91 "Hg10 mi
4:54 PM81 °FSunny.24 mph10%29.90 "Hg10 mi
3:54 PM81 °FSunny.24 mph9%29.89 "Hg10 mi
2:54 PM80 °FSunny.14 mph11%29.92 "Hg10 mi
1:54 PM80 °FSunny.14 mph11%29.92 "Hg10 mi
12:54 PM78 °FSunny.20 mph11%29.94 "Hg10 mi
11:54 AM76 °FSunny.20 mph14%29.95 "Hg10 mi
10:54 AM74 °FSunny.13 mph16%29.95 "Hg10 mi
9:54 AM70 °FSunny.14 mph23%29.94 "Hg10 mi
8:54 AM69 °FSunny.13 mph25%29.87 "Hg10 mi
7:54 AM61 °FSunny.No wind41%29.88 "Hg10 mi
6:54 AM43 °FSunny.No wind74%29.92 "Hg10 mi
5:54 AM39 °FClear.No wind82%29.94 "Hg10 mi
4:54 AM40 °FClear.No wind80%29.93 "Hg10 mi
3:54 AM42 °FClear.No wind73%29.93 "Hg10 mi
2:54 AM42 °FClear.No wind76%29.95 "Hg10 mi
1:54 AM45 °FClear.No wind68%29.94 "Hg10 mi
Weather by CustomWeather, © 2015

See weather overviewHow to use our weather pages